Weather History for KDKR - August, 2013

Change the Weather History Date:

Saturday, August 17, 2013

  Actual Average (KLFK) Record (KLFK)
Temperature  
Mean Temperature 78 °F 83 °F  
Max Temperature 91 °F 94 °F 107 °F (1909)
Min Temperature 66 °F 72 °F 54 °F (1992)
Degree Days  
Heating Degree Days 0 0  
Month to date heating degree days 0  
Since 1 June heating degree days 0  
Since 1 July heating degree days 0  
Cooling Degree Days 14 18  
Month to date cooling degree days 306  
Year to date cooling degree days 1777  
Since 1 June cooling degree days 1308  
Growing Degree Days 28 (Base 50)    
Moisture  
Dew Point 59 °F    
Average Humidity 57    
Maximum Humidity 83    
Minimum Humidity 28    
Precipitation  
Precipitation 0.00 in 0.11 in 5.30 in (1915)
Month to date precipitation 1.74  
Year to date precipitation 28.99  
Snow  
Snow 0.00 in - - ()
Month to date snowfall  
Since 1 June snowfall  
Since 1 July snowfall  
Snow Depth -    
Sea Level Pressure  
Sea Level Pressure 30.04 in    
Wind  
Wind Speed 7 mph (NNE)    
Max Wind Speed 15 mph    
Max Gust Speed 21 mph    
Visibility 10 miles    
Events      
T = Trace of Precipitation, MM = Missing Value Source: NWS Daily Summary

Daily Weather History Graph

Daily Weather History Graph

Search for Another Location

Airport or City:

Trip Planner

Search our weather history database for the weather conditions in past years. The results will help you decide how hot, cold, wet, or windy it might be!

Date:

Astronomy

Aug. 17, 2013 Rise Set
Actual Time 6:48 AM CDT 8:02 PM CDT
Civil Twilight 6:23 AM CDT 8:27 PM CDT
Nautical Twilight 5:52 AM CDT 8:57 PM CDT
Astronomical Twilight 5:21 AM CDT 9:28 PM CDT
Moon 5:12 PM CDT (8/17) 2:59 AM CDT (8/17)
Length of Visible Light 14h 04m
Length of Day
13h 13m
Waxing Gibbous, 84% of the Moon is Illuminated
Aug 17
Waxing Gibbous
Aug 20
Full
Aug 28
Last Quarter
Sep 5
New
Sep 12
First Quarter

Hourly Weather History & Observations

Time (CDT) Temp. Heat Index Dew Point Humidity Pressure Visibility Wind Dir Wind Speed Gust Speed Precip Events Conditions
12:15 AM 73.4 °F - 62.6 °F 69% 30.07 in 10.0 mi NE 8.1 mph - N/A   Partly Cloudy
12:35 AM 73.4 °F - 62.6 °F 69% 30.07 in 10.0 mi NE 5.8 mph - N/A   Scattered Clouds
12:55 AM 73.4 °F - 62.6 °F 69% 30.07 in 10.0 mi NNE 6.9 mph - N/A   Scattered Clouds
1:15 AM 73.4 °F - 62.6 °F 69% 30.06 in 10.0 mi NE 6.9 mph - N/A   Scattered Clouds
1:35 AM 73.4 °F - 62.6 °F 69% 30.06 in 10.0 mi NNE 9.2 mph - N/A   Mostly Cloudy
1:55 AM 71.6 °F - 60.8 °F 69% 30.05 in 10.0 mi NE 9.2 mph - N/A   Scattered Clouds
2:15 AM 71.6 °F - 60.8 °F 69% 30.05 in 10.0 mi NE 9.2 mph - N/A   Partly Cloudy
2:35 AM 71.6 °F - 60.8 °F 69% 30.06 in 10.0 mi NE 5.8 mph - N/A   Scattered Clouds
2:55 AM 71.6 °F - 60.8 °F 69% 30.06 in 10.0 mi NNE 5.8 mph - N/A   Mostly Cloudy
3:15 AM 71.6 °F - 60.8 °F 69% 30.05 in 10.0 mi NNE 9.2 mph - N/A   Mostly Cloudy
3:35 AM 69.8 °F - 60.8 °F 73% 30.06 in 10.0 mi NE 5.8 mph - N/A   Partly Cloudy
3:55 AM 69.8 °F - 60.8 °F 73% 30.06 in 10.0 mi NE 5.8 mph - N/A   Clear
4:15 AM 68.0 °F - 60.8 °F 78% 30.06 in 10.0 mi ENE 3.5 mph - N/A   Clear
4:35 AM 68.0 °F - 60.8 °F 78% 30.07 in 10.0 mi Calm Calm - N/A   Clear
4:55 AM 66.2 °F - 60.8 °F 83% 30.06 in 10.0 mi NNE 4.6 mph - N/A   Clear
5:15 AM 66.2 °F - 60.8 °F 83% 30.06 in 10.0 mi NNE 4.6 mph - N/A   Partly Cloudy
5:35 AM 66.2 °F - 60.8 °F 83% 30.06 in 10.0 mi NNE 5.8 mph - N/A   Partly Cloudy
5:55 AM 66.2 °F - 60.8 °F 83% 30.06 in 10.0 mi NNE 5.8 mph - N/A   Clear
6:15 AM 66.2 °F - 60.8 °F 83% 30.06 in 10.0 mi NNE 5.8 mph - N/A   Clear
6:35 AM 66.2 °F - 60.8 °F 83% 30.07 in 10.0 mi NNE 6.9 mph - N/A   Clear
6:55 AM 66.2 °F - 60.8 °F 83% 30.07 in 10.0 mi NNE 5.8 mph - N/A   Clear
7:15 AM 66.2 °F - 60.8 °F 83% 30.07 in 10.0 mi NNE 5.8 mph - N/A   Clear
7:35 AM 66.2 °F - 60.8 °F 83% 30.07 in 10.0 mi NNE 6.9 mph - N/A   Clear
7:55 AM 68.0 °F - 60.8 °F 78% 30.08 in 10.0 mi NE 8.1 mph - N/A   Clear
8:15 AM 69.8 °F - 62.6 °F 78% 30.08 in 10.0 mi NE 6.9 mph - N/A   Clear
8:35 AM 69.8 °F - 62.6 °F 78% 30.09 in 10.0 mi NE 6.9 mph - N/A   Clear
8:55 AM 71.6 °F - 62.6 °F 73% 30.09 in 10.0 mi NE 6.9 mph - N/A   Clear
9:15 AM 71.6 °F - 62.6 °F 73% 30.08 in 10.0 mi NE 5.8 mph - N/A   Clear
9:35 AM 73.4 °F - 62.6 °F 69% 30.08 in 10.0 mi NE 5.8 mph - N/A   Clear
9:55 AM 75.2 °F - 62.6 °F 65% 30.08 in 10.0 mi NNE 9.2 mph - N/A   Clear
10:15 AM 77.0 °F - 60.8 °F 57% 30.09 in 10.0 mi NE 9.2 mph - N/A   Clear
10:35 AM 78.8 °F - 60.8 °F 54% 30.08 in 10.0 mi North 6.9 mph - N/A   Clear
10:55 AM 78.8 °F - 59.0 °F 51% 30.08 in 10.0 mi North 6.9 mph - N/A   Clear
11:15 AM 80.6 °F 81.1 °F 59.0 °F 48% 30.08 in 10.0 mi North 6.9 mph - N/A   Clear
11:35 AM 80.6 °F 81.1 °F 59.0 °F 48% 30.08 in 10.0 mi North 3.5 mph - N/A   Clear
11:55 AM 82.4 °F 82.5 °F 59.0 °F 45% 30.07 in 10.0 mi North 9.2 mph - N/A   Clear
12:15 PM 82.4 °F 82.9 °F 60.8 °F 48% 30.07 in 10.0 mi NNE 8.1 mph - N/A   Clear
12:35 PM 84.2 °F 83.8 °F 59.0 °F 42% 30.06 in 10.0 mi North 5.8 mph 17.3 mph N/A   Clear
12:55 PM 84.2 °F 83.8 °F 59.0 °F 42% 30.05 in 10.0 mi North 9.2 mph - N/A   Clear
1:15 PM 86.0 °F 84.9 °F 57.2 °F 37% 30.05 in 10.0 mi NNW 11.5 mph 16.1 mph N/A   Clear
1:35 PM 86.0 °F 85.4 °F 59.0 °F 40% 30.04 in 10.0 mi NNE 9.2 mph - N/A   Clear
1:55 PM 87.8 °F 86.5 °F 57.2 °F 35% 30.03 in 10.0 mi NNE 9.2 mph - N/A   Partly Cloudy
2:15 PM 87.8 °F 86.5 °F 57.2 °F 35% 30.02 in 10.0 mi NNE 12.7 mph - N/A   Partly Cloudy
2:35 PM 89.6 °F 88.1 °F 57.2 °F 33% 30.01 in 10.0 mi NNE 9.2 mph - N/A   Clear
2:55 PM 89.6 °F 88.1 °F 57.2 °F 33% 30.01 in 10.0 mi NNE 11.5 mph 16.1 mph N/A   Clear
3:15 PM 89.6 °F 88.1 °F 57.2 °F 33% 30.00 in 10.0 mi North 8.1 mph 20.7 mph N/A   Clear
3:35 PM 89.6 °F 88.1 °F 57.2 °F 33% 29.99 in 10.0 mi North 10.4 mph 16.1 mph N/A   Clear
3:55 PM 89.6 °F 87.7 °F 55.4 °F 31% 29.99 in 10.0 mi NNE 10.4 mph 16.1 mph N/A   Clear
4:15 PM 91.4 °F 89.4 °F 55.4 °F 29% 29.98 in 10.0 mi North 11.5 mph 16.1 mph N/A   Clear
4:35 PM 89.6 °F 87.7 °F 55.4 °F 31% 29.98 in 10.0 mi NE 15.0 mph - N/A   Clear
4:55 PM 91.4 °F 89.1 °F 53.6 °F 28% 29.97 in 10.0 mi NNW 11.5 mph - N/A   Clear
5:15 PM 91.4 °F 89.4 °F 55.4 °F 29% 29.97 in 10.0 mi NNE 12.7 mph 18.4 mph N/A   Clear
5:35 PM 89.6 °F 87.3 °F 53.6 °F 29% 29.98 in 10.0 mi NNE 10.4 mph - N/A   Clear
5:55 PM 89.6 °F 87.7 °F 55.4 °F 31% 29.98 in 10.0 mi North 10.4 mph - N/A   Clear
6:15 PM 89.6 °F 87.7 °F 55.4 °F 31% 29.98 in 10.0 mi NNE 13.8 mph - N/A   Clear
6:35 PM 89.6 °F 87.7 °F 55.4 °F 31% 29.98 in 10.0 mi NNE 9.2 mph - N/A   Clear
6:55 PM 87.8 °F 86.1 °F 55.4 °F 33% 29.98 in 10.0 mi ENE 10.4 mph - N/A   Clear
7:15 PM 87.8 °F 86.1 °F 55.4 °F 33% 29.98 in 10.0 mi NE 8.1 mph - N/A   Clear
7:35 PM 84.2 °F 83.0 °F 55.4 °F 37% 29.99 in 10.0 mi ENE 6.9 mph - N/A   Clear
7:55 PM 82.4 °F 81.7 °F 55.4 °F 39% 29.99 in 10.0 mi NE 5.8 mph - N/A   Clear
8:15 PM 80.6 °F 80.8 °F 57.2 °F 45% 30.00 in 10.0 mi Calm Calm - N/A   Clear
8:35 PM 77.0 °F - 57.2 °F 50% 30.00 in 10.0 mi Calm Calm - N/A   Clear
8:55 PM 75.2 °F - 57.2 °F 53% 30.00 in 10.0 mi Calm Calm - N/A   Clear
9:15 PM 73.4 °F - 57.2 °F 57% 30.01 in 10.0 mi Calm Calm - N/A   Clear
9:35 PM 73.4 °F - 59.0 °F 61% 30.01 in 10.0 mi Calm Calm - N/A   Clear
9:55 PM 73.4 °F - 59.0 °F 61% 30.02 in 10.0 mi Calm Calm - N/A   Clear
10:15 PM 71.6 °F - 59.0 °F 64% 30.03 in 10.0 mi Calm Calm - N/A   Clear
10:35 PM 71.6 °F - 59.0 °F 64% 30.03 in 10.0 mi Calm Calm - N/A   Clear
10:55 PM 71.6 °F - 59.0 °F 64% 30.03 in 10.0 mi Calm Calm - N/A   Clear
11:15 PM 71.6 °F - 60.8 °F 69% 30.03 in 10.0 mi NE 3.5 mph - N/A   Clear
11:35 PM 69.8 °F - 59.0 °F 68% 30.04 in 10.0 mi NE 3.5 mph - N/A   Clear
11:55 PM 69.8 °F - 59.0 °F 68% 30.04 in 10.0 mi NE 3.5 mph - N/A   Clear